Hourly Data Report for May 09, 2021

WESTERN HEAD
NOVA SCOTIA
Current Station Operator: ECCC - MSC

43°59'24.070" N
64°39'51.008" W
10.10 m
8206240
71411
WWE

Download Data

Hourly Data (May 2021)
Hourly Data Report for May 9, 2021
TIME
LST
Temp Definition
°C
Dew Point Definition
°C
Rel Hum Definition
%
Precip. Amount Definition
mm

Wind Dir Definition
10's deg

Wind Spd Definition
km/h
Visibility Definition
km
Stn Press Definition
kPa
Hmdx Definition


Wind Chill Definition


Weather Definition


00:00 4.4 3.2 92 0.0 29 23   99.82     LegendNANA
01:00 4.5 3.8 95 0.3 28 19   99.89     LegendNANA
02:00 4.6 4.2 97 0.2 26 22   99.95     LegendNANA
03:00 4.7 4.1 96 0.6 27 24   100.04     LegendNANA
04:00 4.7 4.2 97 0.0 26 19   100.13     LegendNANA
05:00 4.8 4.2 96 0.2 27 18   100.21     LegendNANA
06:00 5.4 4.9 97 0.0 25 15   100.29     LegendNANA
07:00 6.6 5.7 94 0.0 27 18   100.37     LegendNANA
08:00 7.6 5.4 86 0.0 28 24   100.42     LegendNANA
09:00 9.1 5.8 80 0.0 28 22   100.46     LegendNANA
10:00 9.4 5.0 74 0.0 28 15   100.49     LegendNANA
11:00 13.3 5.8 60 0.0 28 25   100.49     LegendNANA
12:00 14.6 4.8 52 0.0 26 24   100.48     LegendNANA
13:00 16.4 3.7 43 0.0 29 26   100.48     LegendNANA
14:00 15.3 3.0 44 0.0 29 27   100.51     LegendNANA
15:00 15.2 2.1 41 0.0 27 29   100.55     LegendNANA
16:00 14.8 2.8 44 0.0 28 25   100.62     LegendNANA
17:00 15.3 1.3 38 0.0 29 30   100.69     LegendNANA
18:00 14.5 2.3 44 0.0 26 24   100.73     LegendNANA
19:00 12.4 1.7 48 0.0 26 19   100.81     LegendNANA
20:00 10.3 2.1 56 0.0 25 15   100.90     LegendNANA
21:00 8.2 3.8 74 0.0 23 16   101.01     LegendNANA
22:00 8.3 2.8 68 0.0 24 18   101.02     LegendNANA
23:00 8.0 3.2 72 0.0 24 17   101.06     LegendNANA

Notes on Data Quality.

Legend

  • E = Estimated
  • M = Missing
  • NA = Not Available*
  • [empty] = Indicates an unobserved value
Date modified: